ニート彗星

368P/NEAT (2005)

English version
Home page
Updated on October 24, 2018

---------------------------------------------------------------------

・ プロフィール

符号 368P/2005 R1
発見日 2005年9月2日
発見光度 18.0等
発見者 Near-Earth-Asteroid Tracking Team (Jet Propulsion Laboratory)

・ 写真集

・ 軌道要素

Epoch 2005 Sept. 27.0 TT = JDT 2453640.5
T 2005 Oct. 8.41305 TT                                  MPCW
q   2.0470838            (2000.0)            P               Q
n   0.07633789     Peri.  117.95223     +0.92509122     -0.27614993
a   5.5035463      Node   259.06537     +0.18074723     +0.92388329
e   0.6280428      Incl.   15.39592     +0.33397106     +0.26491675
P  12.91
From 360 observations 2005 July 5-2018 June 14, mean residual 0".6.

・ 星図

・ 光度変化

        m1 = 13.5 + 5 logΔ + 10.0 log r

---------------------------------------------------------------------

軌道要素はM.P.E.C. 2018-L76に掲載されたものです。
星図は StellaNavigator Ver.2.0 for Windows (アストロアーツ 編著 / アスキー出版局刊) で作成したものです。
光度グラフはComet for Windowsで作成したものです。

---------------------------------------------------------------------

Copyright(C) Seiichi Yoshida (comet@aerith.net). All rights reserved.